Cheyenne, WY

8:55 AM MST on February 24, 2017 (GMT -0700)
Cheyenne

Weather History for KCYS - September, 2013

Change the Weather History Date:

Sunday, September 8, 2013

  Actual Average Record
Temperature  
Mean Temperature 72 °F 62 °F  
Max Temperature 86 °F 75 °F 91 °F (1979)
Min Temperature 58 °F 48 °F 25 °F (1962)
Degree Days  
Heating Degree Days 0 5  
Month to date heating degree days 0 29  
Since 1 July heating degree days 15 85  
Cooling Degree Days 7 1  
Month to date cooling degree days 65 13  
Year to date cooling degree days 518 339  
Growing Degree Days 24 (Base 50)    
Moisture  
Dew Point 46 °F    
Average Humidity 43    
Maximum Humidity 62    
Minimum Humidity 23    
Precipitation  
Precipitation T in 0.05 in 2.69 in (1973)
Month to date precipitation 0.41 0.42  
Year to date precipitation 8.84 12.87  
Snow  
Snow 0.00 in 0.00 in 0.80 in (1929)
Month to date snowfall 0.0 0.1  
Since 1 July snowfall 0.0 0.1  
Snow Depth 0.00 in    
Sea Level Pressure  
Sea Level Pressure 29.81 in    
Wind  
Wind Speed 8 mph (NW)    
Max Wind Speed 17 mph    
Max Gust Speed 25 mph    
Visibility 10 miles    
Events      
T = Trace of Precipitation, MM = Missing Value Source: NWS Daily Summary

Daily Weather History Graph

Daily Weather History Graph

Search for Another Location

Airport or City:

Trip Planner

Search our weather history database for the weather conditions in past years. The results will help you decide how hot, cold, wet, or windy it might be!

Date:

Astronomy

Sep. 08, 2013 Rise Set
Actual Time 6:33 AM MDT 7:19 PM MDT
Civil Twilight 6:05 AM MDT 7:47 PM MDT
Nautical Twilight 5:31 AM MDT 8:20 PM MDT
Astronomical Twilight 4:57 AM MDT 8:54 PM MDT
Moon 9:55 AM MDT (9/8) 8:54 PM MDT (9/8)
Length of Visible Light 13h 42m
Length of Day
12h 46m
Waxing Crescent, 11% of the Moon is Illuminated
Sep 8
Waxing Crescent
Sep 12
First Quarter
Sep 19
Full
Sep 26
Last Quarter
Oct 4
New

Hourly Weather History & Observations

Time (MDT) Temp. Dew Point Humidity Pressure Visibility Wind Dir Wind Speed Gust Speed Precip Events Conditions
12:53 AM 64.9 °F 48.0 °F 54% 29.87 in 10.0 mi West 10.4 mph - N/A   Clear
1:53 AM 63.0 °F 46.9 °F 56% 29.86 in 10.0 mi WNW 8.1 mph - N/A   Clear
2:53 AM 61.0 °F 46.0 °F 58% 29.86 in 10.0 mi WNW 10.4 mph - N/A   Clear
3:53 AM 62.1 °F 45.0 °F 53% 29.85 in 10.0 mi WNW 8.1 mph - N/A   Clear
4:53 AM 59.0 °F 46.9 °F 64% 29.87 in 10.0 mi WNW 9.2 mph - N/A   Clear
5:53 AM 61.0 °F 45.0 °F 56% 29.88 in 10.0 mi WNW 8.1 mph - N/A   Clear
6:53 AM 62.1 °F 46.0 °F 56% 29.90 in 10.0 mi WNW 10.4 mph - N/A   Clear
7:53 AM 64.9 °F 48.0 °F 54% 29.89 in 10.0 mi WNW 5.8 mph - N/A   Clear
8:53 AM 73.0 °F 46.9 °F 39% 29.88 in 10.0 mi NNW 6.9 mph - N/A   Clear
9:53 AM 77.0 °F 45.0 °F 32% 29.87 in 10.0 mi North 10.4 mph - N/A   Clear
10:53 AM 80.1 °F 44.1 °F 28% 29.84 in 10.0 mi North 6.9 mph - N/A   Clear
11:53 AM 82.9 °F 44.1 °F 25% 29.82 in 10.0 mi Variable 3.5 mph - N/A   Clear
12:53 PM 84.0 °F 44.1 °F 25% 29.80 in 10.0 mi ENE 9.2 mph - N/A   Clear
1:53 PM 82.9 °F 44.1 °F 25% 29.79 in 10.0 mi ENE 6.9 mph - N/A   Clear
2:53 PM 84.0 °F 42.1 °F 23% 29.76 in 10.0 mi Calm Calm - N/A   Clear
3:53 PM 82.0 °F 42.1 °F 24% 29.75 in 10.0 mi West 6.9 mph - N/A   Mostly Cloudy
4:53 PM 79.0 °F 44.1 °F 29% 29.75 in 10.0 mi West 9.2 mph - N/A   Clear
5:53 PM 75.9 °F 46.0 °F 35% 29.75 in 10.0 mi West 12.7 mph - N/A   Scattered Clouds
6:53 PM 73.0 °F 48.9 °F 42% 29.75 in 10.0 mi NW 8.1 mph - N/A   Mostly Cloudy
7:53 PM 73.0 °F 46.0 °F 38% 29.73 in 10.0 mi WNW 5.8 mph - N/A   Mostly Cloudy
8:53 PM 70.0 °F 48.0 °F 46% 29.72 in 10.0 mi Calm Calm - N/A   Partly Cloudy
9:53 PM 69.1 °F 50.0 °F 51% 29.74 in 10.0 mi WNW 16.1 mph 25.3 mph N/A   Mostly Cloudy
10:53 PM 68.0 °F 51.1 °F 55% 29.76 in 10.0 mi WNW 9.2 mph - N/A   Overcast
11:53 PM 68.0 °F 50.0 °F 52% 29.75 in 10.0 mi NNW 11.5 mph 20.7 mph 0.00 in   Mostly Cloudy